Location: Mount Kobau Star Party
(49.1167°N, 119.7333°W)
Time: 08:17:05
(UTC-07:00)

ACS3 Solar Sail - Pass Details

Date: 25 June 2024
Orbit: 992 x 1023 km, 97.4° (Epoch: 12 July)

Event Time Altitude Azimuth Distance (km) Brightness Sun altitude
Exits shadow 00:11:57 - 225° (SW) 3,525 7.4 -16.7°
Reaches altitude 10° 00:15:11 10° 246° (WSW) 2,759 7.0 -16.8°
Maximum altitude 00:18:23 14° 278° (W) 2,451 7.1 -16.9°
Drops below altitude 10° 00:21:36 10° 309° (NW) 2,763 7.9 -17.0°
Sets 00:25:29 0° 334° (NNW) 3,717 9.3 -17.1°
